FW6463 Weather Reports


time (UTC)temp
C
wind
direction
speed
KPH
gust
KPH
rain 1hr
cm
rain 24hr
cm
rain mn
cm
humidity
%
barometer
mb
20260831212520 28 245 1.6 4.8 0.00 0.03 0.03 86 1022.4
20260831211525 27 170 3.2 6.4 0.00 0.03 0.03 87 1022.3
20260831210530 27 177 3.2 6.4 0.00 0.03 0.03 88 1022.2
20260831205517 26 177 3.2 6.4 0.00 0.03 0.03 88 1022.4
20260831204543 27 195 3.2 4.8 0.00 0.03 0.03 85 1022.4
20260831203547 27 246 4.8 6.4 0.00 0.03 0.03 84 1022.4
20260831202552 27 184 6.4 9.7 0.00 0.03 0.03 85 1022.5
20260831201519 27 235 3.2 9.7 0.00 0.03 0.03 85 1022.6
20260831200524 27 227 3.2 6.4 0.00 0.03 0.03 84 1022.7
20260831195549 27 235 3.2 6.4 0.00 0.03 0.03 85 1022.7
20260831194515 27 203 3.2 4.8 0.00 0.03 0.03 85 1022.7
20260831193521 27 242 3.2 3.2 0.00 0.03 0.03 84 1022.9
20260831192525 27 227 4.8 6.4 0.00 0.03 0.03 84 1022.9
20260831191524 27 238 4.8 6.4 0.00 0.03 0.03 82 1023.0
20260831190517 27 230 4.8 8.0 0.00 0.03 0.03 82 1023.2
20260831185542 27 254 6.4 9.7 0.00 0.03 0.03 81 1023.2
20260831184521 28 267 8.0 9.7 0.00 0.03 0.03 78 1023.2
20260831183520 29 265 6.4 11.3 0.00 0.03 0.03 78 1023.2
20260831182519 29 262 6.4 8.0 0.00 0.03 0.03 79 1023.3
20260831181518 28 186 4.8 6.4 0.00 0.03 0.03 81 1023.4
20260831180557 28 262 4.8 6.4 0.00 0.03 0.03 80 1023.4
20260831175536 27 165 4.8 4.8 0.00 0.03 0.03 82 1023.4
20260831174521 27 286 4.8 8.0 0.00 0.03 0.03 81 1023.6
20260831173525 28 301 3.2 6.4 0.00 0.03 0.03 81 1023.4
20260831172551 27 1 1.6 4.8 0.00 0.03 0.03 85 1023.6
20260831171517 28 267 4.8 6.4 0.00 0.03 0.03 81 1023.6
20260831170522 28 183 4.8 6.4 0.00 0.03 0.03 79 1023.6
20260831165527 28 192 4.8 6.4 0.00 0.03 0.03 81 1023.7
20260831164552 27 204 4.8 8.0 0.00 0.03 0.03 82 1023.8
20260831163520 28 287 6.4 9.7 0.00 0.03 0.03 79 1023.8
20260831162524 28 275 6.4 8.0 0.00 0.03 0.03 83 1024.0
20260831161530 27 293 1.6 3.2 0.00 0.03 0.03 89 1023.9
20260831160516 26 319 3.2 3.2 0.00 0.03 0.03 88 1023.9
20260831155521 26 147 1.6 3.2 0.00 0.03 0.03 89 1024.1
20260831154526 26 209 3.2 4.8 0.00 0.03 0.03 88 1024.0
20260831153531 27 279 4.8 8.0 0.00 0.03 0.03 83 1023.9
20260831152518 26 222 3.2 4.8 0.00 0.03 0.03 84 1024.0
20260831151523 26 249 3.2 4.8 0.00 0.03 0.03 85 1024.1
20260831150528 26 282 3.2 6.4 0.00 0.03 0.03 84 1024.2
20260831145532 26 358 3.2 4.8 0.00 0.03 0.03 85 1024.3
20260831144540 25 293 1.6 3.2 0.00 0.03 0.03 90 1024.1
20260831143544 25 269 3.2 4.8 0.00 0.03 0.03 88 1024.1
20260831142529 26 231 3.2 4.8 0.00 0.03 0.03 86 1024.2
20260831141517 25 299 1.6 3.2 0.00 0.03 0.03 91 1024.2
20260831140521 25 225 0.0 3.2 0.00 0.03 0.03 88 1024.3
20260831135526 24 243 0.0 3.2 0.00 0.03 0.03 93 1024.4
20260831134531 24 0.0 3.2 0.00 0.03 0.03 94 1024.4
20260831133538 22 203 1.6 3.2 0.00 0.03 0.03 99 1024.5
20260831132523 22 1.6 3.2 0.00 0.03 0.03 99 1024.5
20260831131548 22 75 1.6 3.2 0.00 0.03 0.03 99 1024.5
20260831130533 22 0.0 0.0 0.00 0.03 0.03 99 1024.5
20260831125520 21 315 1.6 3.2 0.00 0.03 0.03 99 1024.4
20260831124525 21 0.0 0.0 0.00 0.03 0.03 99 1024.2
20260831123530 21 0.0 0.0 0.00 0.03 0.03 99 1024.3
20260831122516 20 0.0 0.0 0.00 0.03 0.03 99 1024.2
20260831121521 20 297 1.6 3.2 0.00 0.03 0.03 99 1024.1
20260831120546 20 0.0 0.0 0.03 0.03 0.03 99 1024.0
20260831115531 20 175 1.6 3.2 0.03 0.03 0.03 99 1023.9
20260831114518 20 0.0 0.0 0.03 0.03 0.03 99 1024.1
20260831113523 19 0.0 0.0 0.03 0.03 0.03 99 1024.1
20260831112528 19 0.0 0.0 0.03 0.03 0.03 99 1024.2
20260831111533 19 0.0 0.0 0.03 0.03 0.03 99 1024.1
20260831110520 19 0.0 0.0 0.00 0.00 0.00 99 1024.0
20260831105525 19 0.0 0.0 0.00 0.00 0.00 99 1023.7
20260831104530 19 0.0 0.0 0.00 0.00 0.00 99 1023.6
20260831103517 19 0.0 0.0 0.00 0.00 0.00 99 1023.4
20260831102542 19 0.0 0.0 0.00 0.00 0.00 99 1023.4
20260831101526 19 0.0 0.0 0.00 0.00 0.00 99 1023.3
20260831100525 19 0.0 0.0 0.00 0.00 0.00 99 1023.2
20260831095538 19 0.0 0.0 0.00 0.00 0.00 99 1023.4
20260831094523 18 0.0 0.0 0.00 0.00 0.00 99 1023.2
20260831093522 18 0.0 0.0 0.00 0.00 0.00 99 1022.9
20260831092515 18 0.0 0.0 0.00 0.00 0.00 99 1022.9
20260831091520 18 0.0 0.0 0.00 0.00 0.00 99 1022.9
20260831090519 18 0.0 0.0 0.00 0.00 0.00 99 1022.9
20260831085518 18 0.0 0.0 0.00 0.00 0.00 99 1022.5
20260831084517 19 0.0 0.0 0.00 0.00 0.00 99 1022.4
20260831083515 19 0.0 0.0 0.00 0.00 0.00 99 1022.7
20260831082546 19 0.0 0.0 0.00 0.00 0.00 99 1022.5
20260831081532 19 0.0 0.0 0.00 0.00 0.00 99 1022.4
20260831080519 19 0.0 0.0 0.00 0.00 0.00 99 1022.4
20260831075523 19 0.0 0.0 0.00 0.00 0.00 99 1022.5
20260831074528 20 0.0 0.0 0.00 0.00 0.00 99 1022.7
20260831073515 20 0.0 0.0 0.00 0.00 0.00 99 1022.7
20260831072520 20 0.0 0.0 0.00 0.00 0.00 99 1022.7
20260831071525 20 0.0 0.0 0.00 0.00 0.00 99 1022.7
20260831070530 20 0.0 0.0 0.00 0.00 0.00 99 1022.7
20260831065517 20 0.0 0.0 0.00 0.00 0.00 99 1022.7
20260831064522 20 0.0 0.0 0.00 0.00 0.00 99 1022.4
20260831063527 21 0.0 0.0 0.00 0.00 0.00 99 1022.7
20260831062531 21 0.0 0.0 0.00 0.00 0.00 99 1022.9
20260831061519 21 0.0 0.0 0.00 0.00 0.00 99 1022.9
20260831060524 21 0.0 0.0 0.00 0.00 0.00 99 1023.1
20260831055528 21 0.0 0.0 0.00 0.00 0.00 99 1023.2
20260831054515 21 202 0.0 3.2 0.00 0.00 0.00 99 1023.4
20260831053540 21 0.0 0.0 0.00 0.00 0.00 99 1023.4
20260831052525 21 0.0 0.0 0.00 0.00 0.00 99 1023.6
20260831051531 21 236 1.6 6.4 0.00 0.00 0.00 99 1023.7
20260831050518 21 192 1.6 4.8 0.00 0.00 0.00 99 1023.7
20260831045522 21 186 4.8 6.4 0.00 0.00 0.00 99 1023.4
20260831044548 20 0.0 0.0 0.00 0.00 0.00 99 1023.2
20260831043532 20 135 0.0 1.6 0.00 0.00 0.00 99 1023.1
20260831042519 20 101 0.0 1.6 0.00 0.00 0.00 99 1023.2
20260831041604 21 0.0 0.0 0.00 0.00 0.00 99 1023.2
20260831040529 21 167 0.0 3.2 0.00 0.00 0.00 99 1023.2
20260831035515 21 289 0.0 3.2 0.00 0.00 0.00 99 1023.2
20260831034521 21 0.0 0.0 0.00 0.00 0.00 99 1023.4
20260831033526 21 0.0 0.0 0.00 0.00 0.00 99 1023.4
20260831032530 21 0.0 0.0 0.00 0.00 0.00 99 1023.6
20260831031518 21 0.0 0.0 0.00 0.00 0.00 99 1023.6
20260831030543 21 0.0 0.0 0.00 0.00 0.00 99 1023.4
20260831025527 21 0.0 0.0 0.00 0.00 0.00 99 1023.6
20260831024532 21 0.0 0.0 0.00 0.00 0.00 99 1023.6
20260831023600 21 0.0 0.0 0.00 0.00 0.00 99 1023.4
20260831022524 21 143 1.6 3.2 0.00 0.00 0.00 99 1023.5
20260831021530 22 0.0 0.0 0.00 0.00 0.00 99 1023.6
20260831020516 22 0.0 0.0 0.00 0.00 0.00 99 1023.7
20260831015602 22 0.0 0.0 0.00 0.00 0.00 99 1023.7
20260831014527 22 0.0 0.0 0.00 0.00 0.00 99 1023.7
20260831013532 22 0.0 0.0 0.00 0.00 0.00 99 1023.4
20260831012519 22 0.0 0.0 0.00 0.00 0.00 99 1023.2
20260831011523 22 0.0 0.0 0.00 0.00 0.00 98 1023.2
20260831010529 22 180 0.0 4.8 0.00 0.00 0.00 99 1023.2
20260831005516 23 0.0 0.0 0.00 0.00 0.00 98 1023.1
20260831004520 23 0.0 0.0 0.00 0.00 0.00 98 1022.9
20260831003525 23 0.0 0.0 0.00 0.00 0.00 98 1022.5
20260831002524 23 170 3.2 4.8 0.00 0.00 0.00 98 1022.4
20260831001517 23 160 1.6 3.2 0.00 0.00 0.00 96 1022.3
20260831000523 23 0.0 0.0 0.00 0.00 0.00 95 1022.2
20260830235521 24 0.0 0.0 0.00 0.00 0.00 94 1022.2
20260830234601 24 163 1.6 3.2 0.00 0.00 0.00 93 1022.2
20260830233519 25 0.0 0.0 0.00 0.00 0.00 91 1022.2
20260830232518 25 0.0 0.0 0.00 0.00 0.00 89 1022.2
20260830231517 25 0.0 0.0 0.00 0.00 0.00 87 1022.2
20260830230516 26 0.0 0.0 0.00 0.00 0.00 86 1022.2
20260830225515 26 0.0 0.0 0.00 0.00 0.00 84 1022.4
20260830224546 26 0.0 0.0 0.00 0.00 0.00 81 1022.2
20260830223552 27 203 0.0 3.2 0.00 0.00 0.00 80 1022.2
20260830222518 28 0.0 0.0 0.00 0.00 0.00 78 1022.2
20260830221523 29 0.0 0.0 0.00 0.00 0.00 75 1022.1
20260830220528 30 113 0.0 1.6 0.00 0.00 0.00 69 1022.0
20260830215515 32 11 3.2 4.8 0.00 0.00 0.00 64 1021.9
20260830214520 32 325 3.2 6.4 0.00 0.00 0.00 64 1021.8
20260830213525 32 12 3.2 3.2 0.00 0.00 0.00 64 1022.0